Location: Buffign�court
(47.8126°N, 6.0176°E)
Time: 19:50:58
(UTC+00:00)

Cosmos 1455 Rocket - Pass Details

Date: 16 June 2021
Orbit: 605 x 629 km, 82.5° (Epoch: 02 August)

Event Time Altitude Azimuth Distance (km) Brightness Sun altitude
Rises 20:26:02 0° 355° (N) 2,924 7.4 -6.9°
Reaches altitude 10° 20:28:22 10° 2° (N) 2,015 6.4 -7.2°
Maximum altitude 20:32:39 44° 75° (ENE) 872 3.6 -7.7°
Drops below altitude 10° 20:36:55 10° 149° (SSE) 2,005 5.0 -8.2°
Enters shadow 20:36:55 10° 149° (SSE) 2,005 5.0 -8.2°
